WLS306 LEAL-EGFF

Flight info

Callsign WLS306
Flight time 2h 9m
Altitude 34000
Route ASTRO L150 RBO DCT OSTIX N867 BLV N75 DELOG DCT TERKU DCT RUSIB DCT NOZHU/N0443F350 DCT SHIRI DCT TOJAQ
Aircraft A320/M-SDE3FGHIRWY/LB1

Departure

Time 2026-04-29 13:48
Airport Alicante-Elche Miguel Hernández Airport (LEAL)

Arrival

Time 2026-04-29 15:58
Airport Cardiff International Airport (EGFF)
Time Latitude Longitude Altitude Speed Heading
2026-04-29 13:39 38.28535 -0.55844 103 ft 0 kts 279°
2026-04-29 13:43 38.28536 -0.55851 103 ft 5 kts 279°
2026-04-29 13:43 38.28550 -0.55963 106 ft 15 kts 275°
2026-04-29 13:43 38.28476 -0.56026 107 ft 15 kts 191°
2026-04-29 13:43 38.28438 -0.56123 107 ft 15 kts 279°
2026-04-29 13:44 38.28455 -0.56253 108 ft 15 kts 279°
2026-04-29 13:44 38.28472 -0.56376 112 ft 13 kts 280°
2026-04-29 13:44 38.28485 -0.56463 113 ft 8 kts 281°
2026-04-29 13:44 38.28494 -0.56522 116 ft 9 kts 281°
2026-04-29 13:45 38.28506 -0.56611 118 ft 10 kts 280°
2026-04-29 13:45 38.28517 -0.56684 117 ft 7 kts 280°
2026-04-29 13:45 38.28524 -0.56735 119 ft 9 kts 279°
2026-04-29 13:45 38.28546 -0.56908 127 ft 22 kts 280°
2026-04-29 13:46 38.28564 -0.57030 135 ft 21 kts 281°
2026-04-29 13:46 38.28589 -0.57204 143 ft 19 kts 280°
2026-04-29 13:46 38.28612 -0.57366 148 ft 18 kts 277°
2026-04-29 13:46 38.28532 -0.57432 152 ft 15 kts 189°
2026-04-29 13:47 38.28437 -0.57409 150 ft 10 kts 90°
2026-04-29 13:47 38.28437 -0.57360 148 ft 0 kts 98°
2026-04-29 13:48 38.28407 -0.57152 139 ft 64 kts 100°
2026-04-29 13:48 38.28283 -0.56290 112 ft 130 kts 100°
2026-04-29 13:48 38.28096 -0.54978 339 ft 157 kts 100°
2026-04-29 13:48 38.27901 -0.53611 973 ft 158 kts 103°
2026-04-29 13:49 38.27672 -0.52232 1676 ft 159 kts 104°
2026-04-29 13:49 38.27432 -0.50808 2127 ft 174 kts 102°
2026-04-29 13:49 38.27164 -0.49208 2389 ft 197 kts 102°
2026-04-29 13:49 38.26865 -0.47397 2671 ft 219 kts 102°
2026-04-29 13:50 38.26545 -0.45424 3024 ft 238 kts 101°
2026-04-29 13:50 38.26211 -0.43350 3635 ft 247 kts 101°
2026-04-29 13:50 38.25862 -0.41190 4404 ft 251 kts 99°
2026-04-29 13:50 38.25507 -0.39003 5179 ft 255 kts 99°
2026-04-29 13:51 38.25148 -0.36773 5982 ft 259 kts 100°
2026-04-29 13:51 38.24785 -0.34522 6769 ft 261 kts 102°
2026-04-29 13:51 38.24093 -0.32379 7456 ft 267 kts 127°
2026-04-29 13:51 38.22714 -0.30804 8218 ft 268 kts 154°
2026-04-29 13:52 38.20953 -0.30123 9003 ft 266 kts 179°
2026-04-29 13:52 38.19143 -0.30442 9799 ft 263 kts 204°
2026-04-29 13:52 38.17635 -0.31656 10527 ft 261 kts 227°
2026-04-29 13:52 38.16642 -0.33561 11264 ft 261 kts 250°
2026-04-29 13:53 38.16358 -0.35836 12002 ft 265 kts 273°
2026-04-29 13:53 38.16861 -0.38104 12709 ft 273 kts 296°
2026-04-29 13:53 38.17900 -0.40143 13421 ft 277 kts 300°
2026-04-29 13:53 38.18987 -0.42183 14084 ft 280 kts 300°
2026-04-29 13:54 38.20093 -0.44248 14707 ft 283 kts 300°
2026-04-29 13:54 38.21202 -0.46328 15345 ft 285 kts 300°
2026-04-29 13:54 38.22312 -0.48425 15983 ft 288 kts 300°
2026-04-29 13:54 38.23415 -0.50516 16616 ft 290 kts 299°
2026-04-29 13:55 38.24541 -0.52657 17263 ft 292 kts 299°
2026-04-29 13:55 38.25676 -0.54815 17901 ft 294 kts 299°
2026-04-29 13:55 38.26925 -0.56897 18481 ft 301 kts 310°
2026-04-29 13:55 38.28582 -0.58652 18713 ft 321 kts 320°
2026-04-29 13:56 38.30448 -0.60355 18827 ft 339 kts 320°
2026-04-29 13:56 38.32427 -0.62136 18954 ft 357 kts 321°
2026-04-29 13:56 38.34504 -0.64001 19084 ft 373 kts 321°
2026-04-29 13:56 38.36647 -0.65928 19446 ft 381 kts 321°
2026-04-29 13:57 38.38789 -0.67861 19933 ft 384 kts 321°
2026-04-29 13:57 38.40981 -0.69847 20462 ft 388 kts 321°
2026-04-29 13:57 38.43189 -0.71846 20989 ft 391 kts 321°
2026-04-29 13:57 38.45407 -0.73857 21527 ft 394 kts 321°
2026-04-29 13:58 38.47644 -0.75895 22059 ft 397 kts 321°
2026-04-29 13:58 38.49898 -0.77952 22623 ft 399 kts 321°
2026-04-29 13:58 38.52163 -0.80019 23138 ft 402 kts 321°
2026-04-29 13:58 38.54450 -0.82104 23647 ft 405 kts 321°
2026-04-29 13:59 38.56718 -0.84175 24089 ft 406 kts 321°
2026-04-29 13:59 38.59018 -0.86278 24535 ft 408 kts 321°
2026-04-29 13:59 38.61326 -0.88388 24980 ft 409 kts 321°
2026-04-29 13:59 38.63651 -0.90511 25420 ft 410 kts 321°
2026-04-29 14:00 38.65975 -0.92637 25860 ft 411 kts 321°
2026-04-29 14:00 38.68303 -0.94769 26275 ft 413 kts 321°
2026-04-29 14:00 38.70640 -0.96913 26675 ft 414 kts 321°
2026-04-29 14:00 38.72984 -0.99069 27082 ft 415 kts 321°
2026-04-29 14:01 38.75328 -1.01229 27485 ft 416 kts 321°
2026-04-29 14:01 38.77651 -1.03369 27872 ft 417 kts 320°
2026-04-29 14:01 38.80013 -1.05546 28259 ft 419 kts 320°
2026-04-29 14:01 38.82380 -1.07727 28623 ft 420 kts 320°
2026-04-29 14:02 38.84754 -1.09915 29000 ft 421 kts 320°
2026-04-29 14:02 38.87135 -1.12114 29356 ft 422 kts 320°
2026-04-29 14:02 38.89518 -1.14317 29716 ft 424 kts 320°
2026-04-29 14:02 38.91912 -1.16529 30076 ft 423 kts 320°
2026-04-29 14:03 38.94309 -1.18743 30384 ft 424 kts 320°
2026-04-29 14:03 38.96700 -1.20957 30643 ft 425 kts 320°
2026-04-29 14:03 38.99075 -1.23159 30881 ft 427 kts 319°
2026-04-29 14:03 39.01485 -1.25397 31112 ft 428 kts 319°
2026-04-29 14:04 39.03909 -1.27650 31344 ft 430 kts 319°
2026-04-29 14:04 39.06337 -1.29912 31563 ft 432 kts 319°
2026-04-29 14:04 39.08767 -1.32181 31768 ft 433 kts 319°
2026-04-29 14:04 39.11203 -1.34455 32022 ft 433 kts 319°
2026-04-29 14:05 39.13650 -1.36734 32305 ft 433 kts 319°
2026-04-29 14:05 39.16089 -1.39005 32571 ft 433 kts 319°
2026-04-29 14:05 39.18529 -1.41277 32853 ft 433 kts 319°
2026-04-29 14:05 39.20937 -1.43526 33134 ft 432 kts 319°
2026-04-29 14:06 39.23369 -1.45800 33411 ft 431 kts 319°
2026-04-29 14:06 39.25799 -1.48076 33687 ft 431 kts 319°
2026-04-29 14:06 39.28214 -1.50341 33890 ft 431 kts 319°
2026-04-29 14:06 39.30615 -1.52590 33931 ft 422 kts 319°
2026-04-29 14:07 39.35324 -1.57000 33939 ft 415 kts 319°
2026-04-29 14:07 39.39971 -1.61370 33934 ft 413 kts 318°
2026-04-29 14:08 39.44579 -1.65718 33937 ft 413 kts 318°
2026-04-29 14:08 39.49215 -1.70098 33942 ft 412 kts 318°
2026-04-29 14:09 39.53847 -1.74481 33936 ft 412 kts 318°
2026-04-29 14:09 39.58475 -1.78870 33946 ft 412 kts 318°
2026-04-29 14:10 39.63070 -1.83229 33940 ft 413 kts 318°
2026-04-29 14:10 39.67707 -1.87632 33931 ft 413 kts 318°
2026-04-29 14:11 39.72336 -1.92031 33929 ft 413 kts 318°
2026-04-29 14:11 39.76979 -1.96461 33919 ft 414 kts 318°
2026-04-29 14:12 39.81619 -2.00902 33922 ft 415 kts 318°
2026-04-29 14:12 39.86264 -2.05340 33914 ft 417 kts 318°
2026-04-29 14:13 39.90941 -2.09814 33914 ft 418 kts 318°
2026-04-29 14:13 39.95637 -2.14315 33906 ft 419 kts 318°
2026-04-29 14:14 40.00330 -2.18830 33913 ft 419 kts 318°
2026-04-29 14:14 40.04989 -2.23323 33913 ft 420 kts 318°
2026-04-29 14:15 40.09691 -2.27871 33911 ft 420 kts 318°
2026-04-29 14:15 40.14390 -2.32422 33918 ft 421 kts 317°
2026-04-29 14:16 40.19108 -2.36986 33914 ft 422 kts 317°
2026-04-29 14:16 40.23796 -2.41525 33931 ft 422 kts 318°
2026-04-29 14:17 40.28525 -2.46092 33903 ft 423 kts 318°
2026-04-29 14:17 40.33271 -2.50667 33899 ft 424 kts 318°
2026-04-29 14:18 40.37873 -2.55456 33900 ft 418 kts 309°
2026-04-29 14:18 40.41759 -2.61028 33895 ft 417 kts 307°
2026-04-29 14:19 40.45655 -2.66650 33897 ft 417 kts 307°
2026-04-29 14:19 40.49566 -2.72311 33878 ft 419 kts 307°
2026-04-29 14:20 40.53489 -2.77999 33871 ft 421 kts 307°
2026-04-29 14:20 40.57427 -2.83712 33878 ft 422 kts 307°
2026-04-29 14:21 40.61335 -2.89403 33874 ft 423 kts 307°
2026-04-29 14:21 40.65280 -2.95154 33877 ft 423 kts 307°
2026-04-29 14:22 40.69226 -3.00918 33877 ft 423 kts 307°
2026-04-29 14:22 40.73158 -3.06684 33901 ft 424 kts 307°
2026-04-29 14:23 40.77101 -3.12484 33875 ft 425 kts 307°
2026-04-29 14:23 40.81089 -3.18179 33876 ft 429 kts 314°
2026-04-29 14:24 40.83521 -3.20509 33871 ft 437 kts 326°
2026-04-29 14:24 40.86309 -3.22157 33880 ft 444 kts 338°
2026-04-29 14:24 40.89344 -3.23023 33877 ft 450 kts 351°
2026-04-29 14:24 40.92491 -3.23025 33870 ft 456 kts
2026-04-29 14:25 40.98750 -3.21659 33866 ft 459 kts
2026-04-29 14:25 41.05047 -3.20245 33870 ft 460 kts
2026-04-29 14:26 41.11371 -3.18838 33877 ft 462 kts
2026-04-29 14:26 41.17733 -3.17419 33863 ft 464 kts
2026-04-29 14:27 41.24066 -3.15988 33861 ft 465 kts
2026-04-29 14:28 41.33648 -3.13817 33873 ft 466 kts
2026-04-29 14:28 41.40047 -3.12365 33872 ft 466 kts
2026-04-29 14:29 41.46453 -3.10902 33873 ft 466 kts
2026-04-29 14:29 41.52809 -3.09452 33884 ft 467 kts
2026-04-29 14:30 41.59215 -3.08006 33873 ft 467 kts
2026-04-29 14:30 41.65635 -3.06560 33866 ft 468 kts
2026-04-29 14:31 41.72050 -3.05094 33848 ft 468 kts
2026-04-29 14:31 41.78444 -3.03623 33880 ft 466 kts
2026-04-29 14:32 41.84798 -3.02161 33884 ft 466 kts
2026-04-29 14:32 41.91178 -3.00686 33882 ft 465 kts
2026-04-29 14:33 41.97551 -2.99212 33879 ft 465 kts
2026-04-29 14:33 42.03893 -2.97747 33859 ft 466 kts
2026-04-29 14:34 42.10284 -2.96262 33856 ft 467 kts
2026-04-29 14:34 42.16688 -2.94768 33868 ft 467 kts
2026-04-29 14:35 42.23092 -2.93277 33858 ft 468 kts
2026-04-29 14:35 42.29507 -2.91782 33850 ft 468 kts
2026-04-29 14:36 42.35884 -2.90290 33845 ft 468 kts
2026-04-29 14:36 42.42303 -2.88780 33855 ft 468 kts
2026-04-29 14:37 42.48768 -2.88278 33853 ft 465 kts 355°
2026-04-29 14:37 42.55191 -2.88693 33851 ft 465 kts 355°
2026-04-29 14:38 42.61660 -2.89104 33843 ft 466 kts 355°
2026-04-29 14:38 42.68124 -2.89523 33838 ft 466 kts 355°
2026-04-29 14:39 42.74607 -2.89949 33834 ft 466 kts 355°
2026-04-29 14:39 42.81080 -2.90370 33834 ft 466 kts 355°
2026-04-29 14:40 42.87509 -2.90781 33828 ft 466 kts 355°
2026-04-29 14:40 42.93977 -2.91202 33831 ft 466 kts 355°
2026-04-29 14:41 43.00456 -2.91622 33838 ft 466 kts 356°
2026-04-29 14:41 43.06943 -2.92043 33827 ft 467 kts 355°
2026-04-29 14:42 43.13389 -2.92459 33825 ft 467 kts 356°
2026-04-29 14:42 43.19889 -2.92889 33830 ft 468 kts 356°
2026-04-29 14:43 43.26387 -2.93494 33821 ft 467 kts 348°
2026-04-29 14:43 43.32513 -2.96203 33817 ft 461 kts 329°
2026-04-29 14:44 43.37783 -3.00980 33813 ft 456 kts 320°
2026-04-29 14:44 43.42911 -3.06148 33831 ft 458 kts 320°
2026-04-29 14:45 43.48051 -3.11328 33809 ft 459 kts 320°
2026-04-29 14:45 43.53201 -3.16556 33805 ft 460 kts 320°
2026-04-29 14:46 43.58320 -3.21752 33810 ft 460 kts 320°
2026-04-29 14:46 43.63481 -3.26989 33817 ft 461 kts 320°
2026-04-29 14:47 43.68632 -3.32246 33822 ft 461 kts 320°
2026-04-29 14:47 43.73779 -3.37512 33825 ft 461 kts 320°
2026-04-29 14:48 43.78935 -3.42793 33818 ft 460 kts 320°
2026-04-29 14:48 43.84048 -3.48045 33820 ft 462 kts 320°
2026-04-29 14:49 43.89211 -3.53361 33814 ft 463 kts 320°
2026-04-29 14:49 43.94386 -3.58695 33818 ft 464 kts 320°
2026-04-29 14:50 43.99539 -3.64000 33815 ft 464 kts 320°
2026-04-29 14:50 44.04719 -3.69347 33824 ft 464 kts 320°
2026-04-29 14:51 44.09905 -3.74721 33827 ft 464 kts 319°
2026-04-29 14:51 44.15044 -3.80082 33827 ft 464 kts 319°
2026-04-29 14:52 44.20101 -3.85359 33829 ft 465 kts 319°
2026-04-29 14:52 44.25231 -3.90725 33815 ft 467 kts 319°
2026-04-29 14:53 44.30611 -3.95516 33839 ft 473 kts 333°
2026-04-29 14:53 44.36496 -3.97862 33828 ft 479 kts 352°
2026-04-29 14:54 44.43121 -3.97774 33815 ft 480 kts
2026-04-29 14:54 44.48991 -3.97220 33814 ft 481 kts
2026-04-29 14:55 44.55717 -3.96594 33826 ft 482 kts
2026-04-29 14:55 44.62424 -3.95962 33823 ft 483 kts
2026-04-29 14:56 44.69117 -3.95322 33827 ft 483 kts
2026-04-29 14:56 44.75830 -3.94684 33830 ft 484 kts
2026-04-29 14:57 44.82507 -3.94054 33831 ft 484 kts
2026-04-29 14:57 44.89235 -3.93438 33831 ft 484 kts
2026-04-29 14:58 44.95936 -3.92802 33843 ft 483 kts
2026-04-29 14:58 45.02609 -3.92154 33846 ft 483 kts
2026-04-29 14:59 45.09301 -3.91511 33844 ft 482 kts
2026-04-29 14:59 45.16000 -3.90867 33850 ft 482 kts
2026-04-29 15:00 45.22698 -3.90232 33846 ft 481 kts
2026-04-29 15:00 45.29332 -3.89591 33843 ft 481 kts
2026-04-29 15:01 45.36057 -3.88918 33845 ft 481 kts
2026-04-29 15:01 45.42698 -3.88266 33825 ft 482 kts
2026-04-29 15:02 45.49383 -3.87621 33837 ft 481 kts
2026-04-29 15:02 45.56050 -3.86974 33844 ft 481 kts
2026-04-29 15:03 45.62728 -3.86324 33848 ft 481 kts
2026-04-29 15:03 45.69374 -3.85671 33850 ft 481 kts
2026-04-29 15:04 45.76058 -3.85017 33864 ft 481 kts
2026-04-29 15:04 45.82719 -3.84356 33869 ft 481 kts
2026-04-29 15:05 45.89405 -3.83697 33872 ft 481 kts
2026-04-29 15:05 45.96018 -3.83045 33892 ft 479 kts
2026-04-29 15:06 46.02660 -3.82374 33900 ft 478 kts
2026-04-29 15:06 46.09287 -3.81711 33896 ft 477 kts
2026-04-29 15:07 46.15853 -3.81065 33899 ft 476 kts
2026-04-29 15:07 46.22489 -3.80405 33904 ft 475 kts
2026-04-29 15:08 46.29019 -3.79736 33902 ft 474 kts
2026-04-29 15:08 46.35603 -3.79066 33904 ft 474 kts
2026-04-29 15:09 46.42198 -3.78417 33895 ft 474 kts
2026-04-29 15:09 46.48772 -3.77767 33892 ft 474 kts
2026-04-29 15:10 46.55309 -3.77101 33891 ft 474 kts
2026-04-29 15:10 46.61893 -3.76419 33889 ft 475 kts
2026-04-29 15:11 46.68475 -3.75745 33889 ft 475 kts
2026-04-29 15:11 46.75074 -3.75057 33890 ft 475 kts
2026-04-29 15:12 46.81674 -3.74369 33905 ft 475 kts
2026-04-29 15:12 46.88214 -3.73693 33904 ft 475 kts
2026-04-29 15:13 46.94815 -3.73018 33901 ft 475 kts
2026-04-29 15:13 47.01402 -3.72343 33899 ft 476 kts
2026-04-29 15:14 47.08006 -3.71666 33904 ft 476 kts
2026-04-29 15:14 47.14572 -3.70984 33898 ft 476 kts
2026-04-29 15:15 47.21185 -3.70298 33901 ft 476 kts
2026-04-29 15:15 47.27790 -3.69608 33910 ft 476 kts
2026-04-29 15:16 47.34392 -3.68924 33921 ft 476 kts
2026-04-29 15:16 47.41008 -3.68232 33924 ft 476 kts
2026-04-29 15:17 47.47577 -3.67544 33927 ft 476 kts
2026-04-29 15:17 47.54187 -3.66853 33942 ft 476 kts
2026-04-29 15:18 47.60788 -3.66151 33942 ft 477 kts
2026-04-29 15:18 47.67413 -3.65446 33942 ft 477 kts
2026-04-29 15:19 47.73980 -3.64749 33941 ft 477 kts
2026-04-29 15:19 47.80608 -3.64044 33941 ft 477 kts
2026-04-29 15:20 47.87224 -3.63336 33936 ft 477 kts
2026-04-29 15:20 47.93842 -3.62628 33932 ft 477 kts
2026-04-29 15:21 48.00446 -3.61935 33940 ft 477 kts
2026-04-29 15:21 48.07008 -3.62438 33938 ft 476 kts 351°
2026-04-29 15:22 48.13572 -3.63764 33935 ft 476 kts 351°
2026-04-29 15:22 48.20148 -3.65093 33937 ft 476 kts 351°
2026-04-29 15:23 48.26712 -3.66406 33943 ft 476 kts 351°
2026-04-29 15:23 48.33270 -3.67716 33944 ft 476 kts 351°
2026-04-29 15:24 48.39801 -3.69019 33943 ft 476 kts 351°
2026-04-29 15:24 48.46358 -3.70347 33952 ft 476 kts 351°
2026-04-29 15:25 48.52928 -3.71680 33974 ft 476 kts 351°
2026-04-29 15:25 48.59497 -3.73022 33989 ft 476 kts 351°
2026-04-29 15:26 48.66022 -3.74360 33990 ft 476 kts 351°
2026-04-29 15:26 48.72594 -3.75708 33970 ft 476 kts 351°
2026-04-29 15:27 48.79148 -3.77051 33970 ft 476 kts 351°
2026-04-29 15:27 48.85693 -3.78382 33976 ft 476 kts 351°
2026-04-29 15:28 48.92297 -3.79735 33983 ft 476 kts 351°
2026-04-29 15:28 48.98832 -3.80765 33984 ft 477 kts
2026-04-29 15:29 49.05468 -3.80428 33989 ft 477 kts
2026-04-29 15:30 49.18694 -3.79597 33995 ft 477 kts
2026-04-29 15:30 49.25330 -3.79186 33997 ft 477 kts
2026-04-29 15:31 49.31967 -3.78801 33999 ft 478 kts
2026-04-29 15:31 49.38613 -3.78394 34004 ft 478 kts
2026-04-29 15:32 49.45223 -3.77975 34007 ft 479 kts
2026-04-29 15:32 49.51875 -3.77567 34018 ft 479 kts
2026-04-29 15:33 49.58527 -3.77163 34020 ft 479 kts
2026-04-29 15:33 49.65203 -3.76731 34034 ft 480 kts
2026-04-29 15:34 49.71864 -3.76267 34028 ft 479 kts
2026-04-29 15:34 49.78511 -3.75516 34040 ft 479 kts
2026-04-29 15:35 49.85127 -3.74627 34033 ft 479 kts
2026-04-29 15:35 49.88434 -3.74201 33748 ft 479 kts
2026-04-29 15:35 49.91760 -3.73794 33124 ft 478 kts
2026-04-29 15:35 49.95082 -3.73402 32510 ft 477 kts
2026-04-29 15:36 49.98373 -3.73018 31865 ft 477 kts
2026-04-29 15:36 50.01684 -3.72635 31212 ft 477 kts
2026-04-29 15:36 50.04944 -3.72254 30561 ft 477 kts
2026-04-29 15:36 50.08264 -3.71860 29864 ft 477 kts
2026-04-29 15:37 50.11562 -3.71465 29282 ft 474 kts
2026-04-29 15:37 50.14844 -3.71072 28622 ft 472 kts
2026-04-29 15:37 50.18122 -3.70679 27990 ft 470 kts
2026-04-29 15:37 50.21376 -3.70289 27364 ft 469 kts
2026-04-29 15:38 50.24608 -3.69904 26729 ft 467 kts
2026-04-29 15:38 50.27861 -3.69514 26116 ft 466 kts
2026-04-29 15:38 50.31088 -3.69124 25503 ft 465 kts
2026-04-29 15:38 50.34255 -3.68742 24892 ft 463 kts
2026-04-29 15:39 50.37461 -3.68355 24339 ft 459 kts
2026-04-29 15:39 50.40642 -3.67974 23780 ft 456 kts
2026-04-29 15:39 50.43779 -3.67547 23233 ft 451 kts
2026-04-29 15:39 50.46867 -3.67013 22753 ft 444 kts 10°
2026-04-29 15:40 50.49920 -3.66407 22266 ft 438 kts 11°
2026-04-29 15:40 50.52922 -3.65780 21787 ft 433 kts 11°
2026-04-29 15:40 50.55858 -3.65168 21307 ft 429 kts 11°
2026-04-29 15:40 50.58807 -3.64567 20828 ft 425 kts 11°
2026-04-29 15:41 50.61733 -3.63986 20330 ft 422 kts 11°
2026-04-29 15:41 50.64640 -3.63422 19845 ft 419 kts 11°
2026-04-29 15:41 50.67524 -3.62875 19341 ft 417 kts 11°
2026-04-29 15:41 50.70390 -3.62338 18940 ft 412 kts 11°
2026-04-29 15:42 50.73228 -3.61804 18463 ft 409 kts 11°
2026-04-29 15:42 50.76035 -3.61276 18000 ft 404 kts 11°
2026-04-29 15:42 50.78834 -3.60743 17364 ft 404 kts 11°
2026-04-29 15:42 50.81574 -3.60213 16908 ft 400 kts 11°
2026-04-29 15:43 50.84338 -3.59677 16386 ft 398 kts 11°
2026-04-29 15:43 50.87092 -3.59142 15837 ft 397 kts 11°
2026-04-29 15:43 50.89804 -3.58603 15352 ft 393 kts 13°
2026-04-29 15:43 50.92404 -3.57502 14883 ft 383 kts 26°
2026-04-29 15:44 50.94749 -3.55580 14375 ft 375 kts 39°
2026-04-29 15:44 50.96736 -3.52988 13907 ft 365 kts 51°
2026-04-29 15:44 50.98474 -3.50123 13457 ft 359 kts 52°
2026-04-29 15:44 51.00203 -3.47260 12950 ft 357 kts 52°
2026-04-29 15:45 51.01884 -3.44477 12806 ft 344 kts 52°
2026-04-29 15:45 51.03515 -3.41776 12667 ft 331 kts 52°
2026-04-29 15:45 51.05240 -3.39480 12546 ft 328 kts 37°
2026-04-29 15:45 51.07306 -3.38006 12417 ft 326 kts 21°
2026-04-29 15:46 51.09531 -3.37414 12237 ft 323 kts 12°
2026-04-29 15:46 51.11744 -3.37024 11999 ft 317 kts 12°
2026-04-29 15:46 51.13905 -3.36656 11871 ft 307 kts 12°
2026-04-29 15:46 51.15987 -3.36308 11749 ft 297 kts 12°
2026-04-29 15:47 51.18012 -3.35965 11615 ft 288 kts 12°
2026-04-29 15:47 51.19978 -3.35698 11488 ft 280 kts 11°
2026-04-29 15:47 51.21902 -3.35503 11360 ft 271 kts
2026-04-29 15:47 51.23725 -3.35339 11238 ft 262 kts 10°
2026-04-29 15:48 51.25514 -3.35180 11033 ft 256 kts 10°
2026-04-29 15:48 51.27286 -3.35014 10758 ft 253 kts 11°
2026-04-29 15:48 51.29030 -3.34843 10470 ft 251 kts
2026-04-29 15:48 51.30766 -3.34667 10168 ft 249 kts 10°
2026-04-29 15:49 51.32486 -3.34492 9864 ft 247 kts 11°
2026-04-29 15:49 51.34201 -3.34315 9539 ft 245 kts 10°
2026-04-29 15:49 51.35904 -3.34143 9227 ft 243 kts 11°
2026-04-29 15:49 51.37592 -3.34141 8899 ft 248 kts 355°
2026-04-29 15:50 51.39198 -3.35135 8566 ft 256 kts 329°
2026-04-29 15:50 51.40440 -3.37191 8210 ft 260 kts 301°
2026-04-29 15:50 51.41281 -3.39763 7838 ft 261 kts 297°
2026-04-29 15:50 51.42109 -3.42356 7508 ft 261 kts 297°
2026-04-29 15:51 51.42933 -3.44931 7189 ft 261 kts 298°
2026-04-29 15:51 51.43763 -3.47524 6882 ft 260 kts 298°
2026-04-29 15:51 51.44586 -3.50095 6594 ft 259 kts 298°
2026-04-29 15:51 51.45408 -3.52656 6268 ft 259 kts 298°
2026-04-29 15:52 51.46255 -3.55295 5576 ft 272 kts 298°
2026-04-29 15:52 51.47132 -3.57990 4848 ft 279 kts 302°
2026-04-29 15:52 51.48449 -3.60198 4062 ft 272 kts 339°
2026-04-29 15:52 51.50198 -3.60783 3369 ft 249 kts 17°
2026-04-29 15:53 51.51603 -3.59614 2996 ft 214 kts 57°
2026-04-29 15:53 51.52006 -3.57577 2911 ft 183 kts 98°
2026-04-29 15:53 51.51348 -3.55990 2847 ft 174 kts 141°
2026-04-29 15:53 51.50263 -3.55284 2813 ft 162 kts 150°
2026-04-29 15:54 51.49188 -3.54875 2762 ft 157 kts 160°
2026-04-29 15:54 51.48159 -3.54605 2730 ft 145 kts 155°
2026-04-29 15:54 51.47198 -3.54284 2654 ft 143 kts 152°
2026-04-29 15:54 51.46299 -3.53613 2405 ft 146 kts 138°
2026-04-29 15:55 51.45408 -3.52720 2137 ft 156 kts 140°
2026-04-29 15:55 51.44387 -3.51939 1858 ft 168 kts 147°
2026-04-29 15:55 51.43293 -3.51154 1575 ft 173 kts 144°
2026-04-29 15:55 51.42384 -3.50043 1373 ft 158 kts 118°
2026-04-29 15:56 51.42091 -3.48476 1287 ft 144 kts 90°
2026-04-29 15:56 51.42125 -3.46895 1220 ft 141 kts 83°
2026-04-29 15:56 51.42260 -3.45348 1161 ft 139 kts 85°
2026-04-29 15:56 51.42289 -3.43841 1150 ft 135 kts 91°
2026-04-29 15:57 51.42135 -3.42362 1084 ft 136 kts 105°
2026-04-29 15:57 51.41753 -3.40968 998 ft 139 kts 111°
2026-04-29 15:57 51.41297 -3.39580 856 ft 144 kts 110°
2026-04-29 15:57 51.40847 -3.38121 665 ft 149 kts 109°
2026-04-29 15:58 51.40395 -3.36645 429 ft 145 kts 111°
2026-04-29 15:58 51.39951 -3.35255 221 ft 133 kts 111°
2026-04-29 15:58 51.39652 -3.34272 222 ft 33 kts 118°
2026-04-29 15:58 51.39591 -3.34064 224 ft 18 kts 97°
2026-04-29 15:59 51.39617 -3.33879 220 ft 17 kts 77°
2026-04-29 15:59 51.39639 -3.33695 218 ft 15 kts 86°
2026-04-29 15:59 51.39688 -3.33619 218 ft 10 kts 26°
2026-04-29 15:59 51.39712 -3.33599 217 ft 0 kts 27°